Wind_Speed
19 19 20 17 17 23 30 36 39 39 45 48 48 37 30 27 21 22 27 28 26 18 15 10 9 24 20 26 33 37 32 32 31 31 30 28 25 25 28 31 27 28 29 30
17 22 25 27 26 29 34 37 35 41 44 48 49 37 30 34 28 21 21 18 16 13 17 17 16 36 34 31 37 38 34 30 32 32 32 36 37 36 35 35 38 34 32 32
20 24 29 25 23 23 23 31 36 34 45 41 46 48 36 36 39 29 24 12 11 10 27 28 25 34 31 36 40 38 36 36 35 35 33 34 38 40 41 41 41 40 41 37
13 20 31 28 16 18 24 25 29 22 33 52 38 44 46 37 23 19 34 26 19 18 27 40 34 28 37 40 42 38 37 39 39 38 38 38 38 40 39 40 43 44 43 43
5 4 10 13 12 21 16 20 24 16 25 33 40 43 49 43 27 28 25 18 23 27 39 41 35 35 38 39 43 44 43 42 44 44 43 43 44 45 46 46 47 48 49 50
15 8 13 10 12 27 26 18 21 29 29 29 34 36 38 47 37 43 35 24 26 39 40 45 46 42 44 44 44 47 48 46 47 47 50 51 50 50 52 53 55 54 56 58
20 12 16 7 7 18 26 31 37 38 31 33 28 32 36 49 46 49 40 41 41 43 37 36 32 35 39 44 47 48 49 49 48 47 50 57 59 65 64 63 63 64 66 66
22 17 10 10 15 24 32 35 35 32 34 35 27 26 26 42 52 43 50 47 49 43 41 48 44 39 35 38 40 44 45 48 51 53 53 57 59 66 72 73 73 75 74 71
30 31 26 27 22 26 31 31 37 37 40 42 45 28 33 45 58 57 55 59 57 57 57 52 48 45 43 53 51 52 55 53 53 54 56 58 60 60 64 66 69 72 76 78
17 39 44 42 28 27 26 29 32 42 41 39 39 31 34 51 61 62 54 56 58 62 61 57 49 50 59 66 59 57 58 58 57 58 58 58 59 62 64 66 67 68 70 72
46 48 45 43 42 39 34 36 39 41 39 42 43 36 38 55 57 53 51 56 56 58 61 53 57 56 59 61 61 65 64 65 69 68 68 66 68 71 73 74 73 72 73 74
51 59 58 56 49 45 43 36 44 42 45 47 43 49 44 45 59 62 64 62 56 56 66 63 60 66 69 69 71 72 75 75 75 73 77 80 78 73 73 74 73 75 76 78
49 56 66 64 57 42 47 45 46 52 46 52 52 52 56 51 48 61 60 65 71 72 70 75 79 83 85 85 82 81 82 82 79 81 88 87 87 86 83 81 80 83 83 84
47 49 42 40 42 45 45 47 46 52 55 54 56 59 62 57 56 62 63 69 72 76 83 88 86 83 86 88 86 92 93 92 90 93 93 96 88 82 82 86 90 93 88 86
64 63 60 59 50 53 49 48 47 45 45 47 48 56 62 74 78 77 76 76 77 81 82 85 88 89 88 92 95 97 99 102 101 99 91 86 83 80 82 84 86 87 87 86
71 70 68 61 60 56 58 62 59 59 66 71 63 71 77 76 78 85 86 90 86 88 87 85 88 92 97 99 98 92 88 85 83 82 81 78 77 76 75 74 75 75 76 76
82 78 72 66 71 70 68 66 66 72 69 72 77 75 72 71 73 81 83 86 92 93 92 94 95 89 79 78 78 78 77 77 75 76 76 77 75 73 71 71 71 72 71 70
64 74 81 80 78 76 80 85 81 72 63 61 62 58 59 62 65 70 77 85 89 90 88 79 75 74 75 75 76 77 77 73 69 72 71 69 65 61 61 62 63 64 65 63
68 69 72 71 70 78 85 73 69 64 60 57 57 59 60 61 62 64 67 69 71 72 72 73 74 76 79 77 75 75 77 70 67 63 60 59 57 55 57 57 58 57 55 56
58 61 64 67 67 67 66 65 65 66 64 63 62 63 63 64 67 68 70 71 72 73 73 74 75 76 77 75 74 75 76 70 64 56 49 48 51 52 50 50 49 52 55 55
62 64 65 67 68 68 68 67 67 66 66 67 67 67 67 68 70 72 73 73 73 74 77 76 77 74 69 67 67 66 67 65 60 43 35 33 36 42 49 53 56 58 57 57
66 68 68 68 69 69 68 68 68 68 69 70 71 71 71 71 72 74 76 75 72 71 70 66 62 60 60 59 62 65 63 59 53 46 43 44 47 50 52 55 54 60 63 62
69 69 70 70 70 70 70 69 70 71 73 73 73 74 73 73 72 70 69 66 62 62 60 59 57 57 59 59 60 61 62 58 54 49 50 44 48 49 51 56 63 67 66 69
62 64 65 65 65 65 65 63 62 62 64 65 64 64 64 63 62 61 58 55 49 47 50 61 59 58 59 58 58 59 58 57 55 54 48 53 57 58 60 62 66 73 77 75
57 59 59 58 57 55 55 55 56 56 57 58 56 55 53 54 54 55 52 49 47 50 58 64 61 59 58 53 56 58 57 58 57 49 54 58 61 62 68 72 76 75 58 49
49 49 48 48 47 50 51 50 50 51 53 54 54 52 49 49 49 49 49 45 44 46 47 51 56 56 58 58 58 61 64 52 52 57 63 67 67 71 76 74 60 51 45 39
40 42 44 44 46 50 50 50 52 52 52 52 51 52 51 49 49 47 47 45 43 44 45 48 53 54 55 54 54 58 54 58 64 70 71 72 72 72 59 44 43 40 34 29
Wind_Direction
233 228 199 205 207 222 219 213 207 210 209 207 208 209 206 208 222 228 232 242 249 275 275 294 272 274 270 265 271 271 279 283 277 268 253 254 251 257 255 247 245 249 250 253
233 208 201 202 201 207 211 212 209 212 207 210 211 207 211 213 218 234 237 259 265 261 252 272 243 245 256 267 276 279 278 281 283 273 264 255 259 260 259 254 253 251 250 248
218 216 212 211 210 213 215 217 216 211 210 212 215 211 214 216 226 226 230 240 236 229 253 278 276 243 260 265 268 273 281 276 278 271 268 267 267 266 263 256 251 251 254 251
217 214 213 231 252 223 214 208 213 209 214 217 221 226 219 217 208 220 209 234 221 214 250 265 267 260 256 265 268 267 272 269 270 267 263 264 263 263 259 257 255 253 254 253
161 184 257 277 281 254 245 201 190 209 223 223 223 228 223 210 192 178 182 197 206 217 237 244 250 264 262 268 270 272 272 270 268 265 263 262 265 263 261 259 257 254 254 256
228 247 299 307 250 237 245 240 219 210 222 225 222 230 210 192 184 196 212 217 210 211 225 245 261 257 258 261 267 267 270 269 268 268 263 261 261 263 264 264 262 262 262 261
221 229 317 290 269 242 231 231 226 221 228 223 220 228 222 204 196 211 229 228 216 221 240 247 253 264 271 270 268 267 267 262 269 268 268 264 263 263 264 263 263 262 264 265
235 220 295 296 238 232 228 214 221 226 212 200 197 208 208 215 206 242 236 233 223 233 266 272 270 263 264 269 270 270 268 271 271 272 268 272 268 265 265 266 265 265 265 267
216 235 256 273 291 250 234 222 207 209 217 209 199 214 236 216 221 226 235 237 235 236 259 274 269 264 270 276 266 272 273 269 275 275 274 275 271 270 271 271 270 270 270 270
225 243 243 252 267 266 249 243 204 194 204 215 221 225 233 213 219 226 240 239 242 246 255 265 266 269 266 274 270 273 273 271 273 276 275 273 274 273 274 274 275 275 275 274
229 231 244 247 253 262 251 231 227 220 216 215 212 215 231 218 222 233 239 244 241 247 259 257 263 262 265 275 272 277 280 280 277 277 277 277 276 274 272 271 272 273 273 273
239 238 239 246 255 262 254 246 228 225 233 228 227 226 235 238 231 233 239 241 245 252 255 260 263 268 272 274 278 282 285 282 281 283 283 279 279 278 275 275 275 275 275 275
232 233 237 244 255 246 254 250 231 227 231 226 242 249 243 234 232 231 238 246 255 260 263 268 269 269 271 273 275 278 279 282 281 281 285 283 278 276 277 276 277 278 279 279
234 233 236 241 238 247 251 242 231 227 232 237 247 257 264 258 252 253 255 252 253 259 260 263 268 269 270 270 272 277 281 285 285 284 283 283 279 277 276 275 275 276 280 279
232 238 239 232 235 241 238 242 241 241 243 246 250 253 256 255 258 260 259 258 262 264 264 267 267 268 272 275 278 281 283 283 281 283 282 280 278 277 276 275 275 276 278 279
238 242 242 235 235 240 239 241 252 263 263 263 257 271 273 265 259 255 257 256 259 261 263 266 269 272 278 280 279 280 280 280 279 280 280 280 280 279 279 279 280 281 281 281
239 244 241 246 252 256 251 253 254 269 269 264 267 269 266 263 260 256 258 259 261 263 266 272 277 276 275 274 275 276 278 278 279 281 281 280 279 280 279 279 281 282 282 282
238 239 242 249 256 263 269 265 266 270 265 262 264 264 264 264 264 263 261 261 265 269 271 270 271 273 275 276 277 276 276 279 281 281 281 279 278 278 279 280 282 281 280 282
238 243 247 253 256 261 265 262 263 261 261 260 263 265 266 267 266 267 268 268 267 268 270 272 275 277 278 279 282 281 282 284 284 284 278 273 274 275 281 281 282 285 285 287
251 253 254 255 256 258 260 261 262 263 264 264 265 266 266 266 267 268 270 272 272 273 274 276 277 279 280 281 280 281 283 286 292 292 277 269 269 273 278 280 281 283 286 288
254 254 255 256 258 260 262 263 265 266 266 267 268 268 268 269 270 271 271 272 274 275 275 275 276 277 276 275 276 280 283 289 295 288 281 275 274 274 278 280 281 286 288 289
255 256 256 258 260 261 263 266 268 269 269 270 270 270 271 271 271 272 273 275 275 275 275 275 274 271 270 270 271 277 282 287 287 288 291 289 283 282 283 285 289 293 288 280
258 259 261 262 264 266 267 268 269 270 271 272 272 272 272 272 272 272 272 274 275 274 270 268 267 267 267 267 270 271 277 279 281 285 291 291 294 294 297 299 297 295 293 291
259 261 262 265 266 267 268 268 269 268 268 269 270 272 273 273 273 274 274 275 271 262 253 266 269 270 266 266 268 269 273 280 283 289 293 298 301 300 300 297 296 297 294 290
258 259 262 265 267 267 266 267 268 269 272 272 272 272 272 271 271 273 272 271 265 258 255 257 262 265 267 268 263 270 276 282 286 292 298 301 301 301 299 299 299 298 294 292
262 262 261 263 264 264 268 270 271 274 276 276 276 275 271 269 267 267 269 268 270 262 258 255 259 265 272 273 274 276 282 285 290 292 296 299 298 297 299 301 300 297 296 297
260 261 263 265 265 266 268 271 277 279 279 279 279 278 276 271 265 261 262 264 264 262 260 260 261 266 271 275 280 285 287 289 291 294 296 296 297 298 298 296 296 292 292 294
Height
10821 10822 10824 10826 10827 10831 10837 10844 10852 10862 10867 10875 10881 10890 10896 10900 10907 10909 10913 10914 10915 10913 10917 10921 10917 10916 10918 10919 10921 10920 10918 10918 10919 10921 10922 10924 10924 10925 10927 10929 10931 10931 10931 10932
10815 10818 10818 10818 10819 10821 10826 10838 10849 10852 10858 10868 10878 10886 10891 10896 10898 10902 10907 10909 10907 10904 10909 10910 10914 10910 10908 10911 10911 10913 10914 10913 10914 10915 10915 10918 10919 10919 10920 10921 10922 10923 10924 10925
10810 10811 10813 10817 10819 10820 10826 10833 10841 10848 10858 10863 10869 10876 10884 10886 10887 10894 10902 10903 10903 10900 10908 10902 10908 10906 10905 10904 10899 10903 10905 10907 10907 10908 10908 10909 10909 10910 10911 10912 10913 10914 10915 10916
10807 10807 10810 10812 10816 10818 10821 10830 10837 10847 10852 10856 10864 10869 10874 10879 10883 10888 10891 10893 10895 10900 10907 10906 10902 10900 10898 10894 10893 10893 10895 10897 10898 10898 10899 10901 10901 10900 10901 10902 10902 10904 10905 10906
10802 10804 10807 10809 10812 10815 10822 10828 10832 10841 10846 10846 10849 10853 10861 10873 10878 10881 10881 10883 10883 10891 10896 10894 10892 10890 10885 10883 10882 10886 10886 10886 10888 10888 10890 10890 10891 10891 10892 10891 10892 10893 10893 10894
10797 10800 10803 10806 10808 10811 10816 10820 10825 10830 10832 10835 10839 10844 10854 10861 10867 10872 10872 10872 10874 10882 10878 10879 10878 10877 10874 10874 10872 10874 10874 10877 10878 10878 10880 10880 10880 10880 10881 10881 10881 10881 10880 10880
10790 10794 10799 10798 10801 10805 10808 10812 10813 10819 10826 10828 10832 10835 10843 10853 10857 10858 10863 10869 10870 10863 10866 10866 10867 10865 10865 10864 10862 10862 10863 10865 10866 10866 10866 10868 10868 10868 10867 10867 10867 10867 10866 10865
10784 10789 10793 10792 10795 10796 10795 10799 10806 10811 10816 10823 10828 10831 10834 10841 10852 10858 10851 10856 10856 10857 10855 10854 10856 10856 10854 10854 10851 10850 10848 10849 10851 10852 10851 10852 10851 10851 10850 10849 10849 10848 10848 10848
10777 10781 10784 10786 10789 10792 10791 10796 10803 10807 10809 10812 10818 10823 10829 10830 10830 10830 10834 10836 10836 10840 10840 10840 10838 10839 10837 10838 10838 10837 10836 10835 10835 10835 10834 10833 10832 10831 10830 10828 10826 10826 10825 10824
10766 10772 10774 10778 10783 10788 10790 10791 10797 10801 10801 10804 10808 10816 10820 10822 10820 10822 10823 10824 10826 10826 10825 10825 10824 10820 10820 10822 10823 10823 10822 10821 10820 10820 10819 10817 10815 10812 10811 10810 10808 10806 10804 10802
10761 10762 10765 10769 10775 10781 10784 10783 10788 10790 10795 10797 10800 10802 10806 10812 10809 10808 10811 10813 10813 10811 10810 10809 10806 10804 10805 10806 10806 10807 10805 10805 10804 10802 10802 10800 10797 10795 10791 10789 10788 10787 10785 10783
10751 10753 10755 10760 10768 10772 10778 10782 10782 10784 10781 10783 10787 10790 10791 10795 10799 10801 10799 10796 10794 10792 10793 10789 10786 10789 10789 10788 10788 10786 10785 10784 10783 10781 10782 10780 10777 10775 10772 10768 10765 10764 10764 10762
10743 10745 10749 10754 10760 10763 10765 10765 10768 10775 10778 10777 10777 10777 10778 10782 10783 10786 10787 10782 10778 10777 10778 10775 10774 10772 10771 10773 10773 10773 10769 10768 10765 10761 10760 10755 10754 10753 10750 10747 10742 10739 10741 10739
10734 10736 10739 10744 10748 10750 10752 10753 10758 10765 10770 10773 10772 10769 10768 10769 10768 10768 10769 10768 10765 10762 10760 10760 10760 10760 10758 10760 10755 10756 10750 10746 10743 10738 10734 10732 10730 10730 10726 10720 10718 10715 10719 10714
10721 10724 10728 10731 10734 10738 10741 10748 10751 10754 10757 10756 10760 10762 10763 10758 10754 10754 10754 10752 10752 10749 10748 10747 10747 10746 10743 10741 10736 10729 10725 10722 10719 10715 10708 10705 10703 10704 10700 10697 10694 10691 10689 10689
10707 10711 10715 10719 10721 10723 10726 10733 10740 10740 10741 10743 10740 10740 10740 10738 10737 10737 10735 10736 10735 10734 10730 10729 10727 10724 10721 10716 10710 10706 10701 10696 10692 10690 10687 10682 10679 10680 10675 10673 10670 10667 10662 10662
10692 10696 10701 10703 10705 10706 10709 10714 10717 10722 10722 10721 10721 10720 10715 10712 10713 10716 10715 10712 10712 10711 10711 10709 10707 10702 10697 10693 10689 10685 10681 10676 10671 10667 10664 10660 10657 10656 10652 10650 10648 10645 10641 10638
10679 10683 10686 10687 10688 10689 10691 10694 10697 10700 10703 10700 10697 10697 10694 10692 10691 10692 10691 10691 10691 10690 10687 10688 10682 10679 10676 10672 10668 10664 10659 10655 10651 10647 10643 10639 10637 10635 10632 10630 10628 10625 10621 10619
10666 10669 10671 10673 10675 10675 10676 10675 10676 10681 10684 10683 10680 10679 10677 10674 10672 10670 10668 10669 10669 10666 10667 10663 10661 10658 10654 10653 10648 10641 10636 10633 10630 10625 10621 10618 10617 10616 10614 10611 10609 10607 10603 10599
10650 10651 10652 10654 10656 10657 10657 10658 10660 10661 10662 10663 10663 10662 10660 10657 10653 10652 10649 10647 10646 10644 10644 10643 10639 10635 10633 10630 10624 10620 10615 10613 10611 10606 10601 10600 10600 10599 10598 10595 10592 10589 10586 10584
10632 10636 10637 10638 10639 10639 10639 10639 10639 10639 10640 10641 10641 10641 10639 10636 10633 10631 10628 10627 10627 10623 10618 10620 10616 10613 10611 10608 10605 10602 10599 10597 10595 10592 10588 10587 10587 10585 10582 10579 10577 10572 10567 10565
10616 10616 10618 10619 10618 10619 10619 10618 10618 10617 10616 10615 10615 10616 10615 10614 10612 10609 10605 10604 10605 10599 10593 10592 10591 10588 10587 10588 10588 10587 10586 10583 10582 10579 10577 10574 10572 10570 10567 10562 10559 10554 10548 10545
10594 10594 10593 10596 10598 10597 10597 10598 10598 10597 10594 10592 10591 10591 10591 10590 10588 10585 10583 10582 10581 10576 10573 10572 10571 10570 10569 10570 10571 10570 10571 10571 10568 10563 10562 10558 10555 10552 10549 10545 10539 10532 10526 10523
10572 10574 10576 10577 10578 10578 10578 10577 10577 10575 10573 10572 10571 10568 10566 10564 10563 10561 10560 10562 10562 10558 10556 10551 10552 10551 10552 10552 10553 10553 10553 10553 10551 10548 10545 10542 10538 10535 10531 10527 10522 10513 10502 10497
10554 10558 10560 10560 10558 10559 10558 10558 10558 10556 10553 10551 10551 10550 10548 10546 10545 10543 10542 10542 10541 10541 10539 10539 10536 10534 10535 10537 10537 10537 10536 10535 10534 10530 10528 10525 10522 10517 10512 10506 10497 10487 10478 10474
10539 10539 10541 10541 10541 10540 10540 10541 10540 10539 10536 10532 10531 10530 10530 10528 10526 10526 10525 10526 10524 10523 10523 10523 10521 10523 10523 10522 10522 10520 10520 10517 10514 10513 10511 10509 10505 10499 10492 10483 10474 10470 10465 10460
10524 10525 10526 10527 10526 10525 10525 10525 10523 10521 10519 10515 10513 10510 10507 10507 10507 10508 10509 10509 10510 10509 10511 10512 10512 10511 10509 10507 10506 10505 10504 10502 10500 10496 10494 10490 10484 10476 10471 10466 10463 10459 10454 10449